2018 Detroit Free Press/Chemical Bank Marathon

Detroit, MI
2018-10-21
Starts on: 2018-10-21
Where: Detroit, MI
Categories: International Half Marathon Marathon U.S. Only Half Marathon 5K Marathon Relay 1 Mile
Description: Since 1978, runners from all over the world have traveled to Detroit to take part in our marathon. It's become an event that encompasses people from all walks of life, not just elite runners. Whether you’re a seasoned marathoner, casual runner or training for your first 5K, we have a race for you.
Male 40-44 Marathon
name bib rank time pace hometown
Christopher Kipyego Chipsiya 1 1 02:20:58 05:23 zacatecas, Mexico
Michael Camilleri 2023 2 02:35:39 05:57 Brighton, MI
Scott Mangum 1999 3 02:44:59 06:18 Evanston, IL
Jeramie Carbonaro 2572 4 02:50:36 06:31 Windsor, Canada
Matthew Van Cleave 1647 5 02:53:03 06:37 Lansing, MI
Robert Mora 826 6 02:59:53 06:52 LaSalle, Canada
Kevin Gum 2704 7 03:04:15 07:02 Naperville, IL
Michael Barton 444 8 03:04:56 07:04 North Aurora, IL
brian cooper 647 9 03:06:47 07:08 Grosse Pointe, MI
Corland McDiarmid 1716 10 03:07:28 07:10 Sunfield, MI
Jeremy Ohmes 2479 11 03:07:57 07:11 Chicago, IL
Daniel Robertson 1347 12 03:10:11 07:16 Ann Arbor, MI
David Ford 2536 13 03:10:51 07:17 Grosse Pointe, MI
Matthew Parker 615 14 03:11:12 07:18 Amherstburg, Canada
Frederic Basset 900 15 03:11:43 07:19 Houston, TX
Mark Scoles 1388 16 03:12:22 07:21 Monroe, MI
RAFAEL LIMON MONROY 2473 17 03:12:37 07:21 Rochester, MI
Kristian Lentz 2405 18 03:13:50 07:24 Novi, MI
Ryan Maxey 1495 19 03:14:58 07:27 Brighton, MI
Paul Binelli 411 20 03:15:06 07:27 Berkley, MI
Michael Gadau 1966 21 03:16:01 07:29 Leipheim, Germany
Andy Sulak 2285 22 03:17:39 07:33 Wheat Ridge, CO
Brady Sturm 1184 23 03:17:44 07:33 Neenah, WI
Gary Koutsoubos 1969 24 03:18:18 07:34 Bloomfield Hills, MI
Jeffrey Keith 2486 25 03:18:43 07:35 Rochester, MI
Makoto Murakami 690 26 03:20:32 07:39 Ann Arbor, MI
Jason Androff 1658 27 03:22:24 07:44 Saint John, IN
Dung Van 2611 28 03:22:29 07:44 Kitchener, Canada
Mark Gryn 808 29 03:22:51 07:45 Windsor, Canada
RYOTA ICHIHARA 1118 30 03:23:30 07:46 Novi, MI
Masatsugu OKADA 1395 31 03:23:33 07:46 Novi, MI
Dave Berry 2125 32 03:23:59 07:47 New Haven, MI
Damon Jacobs 41144 33 03:24:05 07:48 Pickering, Canada
Scott Kennell 41016 34 03:24:41 07:49 Westland, MI
Brian Wright 2314 35 03:24:41 07:49 Nashville, TN
Stephen Gazda 5945 36 03:25:15 07:50 Yakima, WA
Jason Schneider 1805 37 03:25:21 07:50 Lake Orion, MI
Isao Kurata 2649 38 03:26:25 07:53 Novi, MI
Marc Lauzon 1763 39 03:27:24 07:55 Fayetteville, NY
Alex Travis 2320 40 03:27:27 07:55 Ann Arbor, MI
Scott Lipski 1104 41 03:28:06 07:57 Chicago, IL
Sameer Adhikari 2053 42 03:28:30 07:58 San Jose, CA
Kayhan Gultekin 2160 43 03:28:45 07:58 Ann Arbor, MI
Brent McKellar 2284 44 03:29:09 07:59 Lansing, MI
Hansen Hermono 2394 45 03:29:28 08:00 Winter Park, FL
Thomas Cullen 1568 46 03:29:32 08:00 Dearborn, MI
Sean Cumming 1626 47 03:31:48 08:05 Jackson, MI
Paul Graessle 2481 48 03:33:59 08:10 Arlington Heights, IL
Leonard Babajan 800 49 03:34:49 08:12 Rochester, MI
Chris Holda 317 50 03:35:49 08:14 Manchester, MI
Matthew Santner 2273 51 03:36:18 08:16 Dowling, MI
Daniel Neumann 2177 52 03:36:24 08:16 South Bend, IN
Jason Rasor 2487 53 03:36:30 08:16 Temperance, MI
Henry Patterson 2210 54 03:36:54 08:17 Lorain, OH
Daniel Simpson 2414 55 03:39:19 08:22 New Orleans, LA
Shogo Ito 177 56 03:39:57 08:24 Novi, MI
Rodney Johnson 2591 57 03:40:47 08:26 Sterling Heights, MI
ANTHONY KRAUDELT 5025 58 03:43:09 08:31 Bay City, MI
Jarrod Miller 6407 59 03:44:45 08:35 Flint, MI
Chuanwu Xi 1365 60 03:45:09 08:36 Ann Arbor, MI
Michael Smith 1751 61 03:45:33 08:37 Birmingham, MI
Jamal Wright 1377 62 03:45:59 08:38 New York, NY
Jason Wolfenden 185 63 03:46:12 08:38 Clinton Township, MI
Eric Woelkers 5232 64 03:48:04 08:42 Flat Rock, MI
Douglas Brwone 272 65 03:48:09 08:43 Lasalle, Canada
Robert Graham 1157 66 03:48:12 08:43 Tarpon Springs, FL
Dylan Misenheimer 234 67 03:48:19 08:43 Livonia, MI
Anthony Zientak 2174 68 03:48:25 08:43 Memphis, MI
Jeffrey Huntington 6056 69 03:48:31 08:43 Eaton Rapids, MI
kelton graham 1553 70 03:48:45 08:44 Detroit, MI
Tetsuya Hasebe 5815 71 03:48:55 08:44 Ann Arbor, MI
Arthur Brown 5980 72 03:49:39 08:46 Sterling Heights, MI
Nathan Klomp 2590 73 03:50:46 08:49 Rochester, MI
Guillaume Morin 1665 74 03:51:09 08:50 Magog, Canada
Matthew Twork 2353 75 03:51:31 08:50 Brighton, MI
Kyle Anderson 336 76 03:52:12 08:52 Saint Clair Shores, MI
Rob Ward 627 77 03:52:33 08:53 Boonton, NJ
Aaron Haberman 2301 78 03:52:38 08:53 Longmont, CO
Garrett Whitley 6273 79 03:52:57 08:54 Pleasant Ridge, MI
Samuel Patterson 1384 80 03:53:06 08:54 Belleville, MI
Andrew Archila 172 81 03:53:07 08:54 Kenosha, WI
Alvin Szeto 2274 82 03:53:22 08:55 Novi, MI
Steve Davenport 1970 83 03:54:00 08:56 East China, MI
J Reynolds 625 84 03:54:19 08:57 Walled Lake, MI
Roy Montemayor 622 85 03:54:26 08:57 Clinton Township, MI
Justin Schalk 5404 86 03:54:47 08:58 Saginaw, MI
Peter Wohlberg 438 87 03:55:37 09:00 Seattle, WA
Jeffrey Burgess 5854 88 03:55:41 09:00 Holland, MI
Atsunori Adachi 6177 89 03:56:00 09:01 Novi, MI
Tony Burg 715 90 03:56:01 09:01 Auburn Hills, MI
David Hahn 2510 91 03:56:24 09:02 Warren, MI
Michael Smith 1671 92 03:56:33 09:02 Lake Orion, MI
Matthew Bassin 1569 93 03:56:50 09:02 Grand Blanc, MI
John Swanson 2357 94 03:57:57 09:05 Hainesport, NJ
Nathan Dewey 5752 95 03:59:05 09:08 Ypsilanti, MI
Craig Robbins 5240 96 03:59:10 09:08 Valparaiso, IN
Jeff MacBane 41014 97 03:59:11 09:08 East Lansing, MI
Andrew Skiba 5213 98 03:59:12 09:08 Tecumseh, Canada
Gbenga Showole 1724 99 03:59:38 09:09 Cincinnati, OH
Timothy Defever 242 100 04:02:50 09:16 Saint Clair Shores, MI

Next Page

For results questions or inquiries please email results@enmotive.com